Bluewater, NM

8:24 PM MDT on August 31, 2016 (GMT -0600)
Grants-Milan Municipal

Weather History for KGNT - November, 2012

Change the Weather History Date:

Monday, November 12, 2012

  Actual Average Record
Temperature  
Mean Temperature 28 °F -  
Max Temperature 47 °F 58 °F 73 °F (1989)
Min Temperature 9 °F 25 °F 9 °F (2012)
Degree Days  
Heating Degree Days 37    
Moisture  
Dew Point 13 °F    
Average Humidity 64    
Maximum Humidity 90    
Minimum Humidity 23    
Precipitation  
Precipitation 0.00 in - - ()
Sea Level Pressure  
Sea Level Pressure 30.40 in    
Wind  
Wind Speed 4 mph (NW)    
Max Wind Speed 9 mph    
Max Gust Speed -    
Visibility 10 miles    
Events      
Averages and records for this station are not official NWS values.
T = Trace of Precipitation, MM = Missing Value Source: NWS Daily Summary

Daily Weather History Graph

Daily Weather History Graph

Search for Another Location

Airport or City:

Trip Planner

Search our weather history database for the weather conditions in past years. The results will help you decide how hot, cold, wet, or windy it might be!

Date:

Astronomy

Nov. 12, 2012 Rise Set
Actual Time 6:43 AM MST 5:07 PM MST
Civil Twilight 6:17 AM MST 5:34 PM MST
Nautical Twilight 5:46 AM MST 6:04 PM MST
Astronomical Twilight 5:16 AM MST 6:34 PM MST
Moon 5:14 AM MST (11/12) 4:13 PM MST (11/12)
Length of Visible Light 11h 16m
Length of Day
10h 23m
Waning Crescent, 2% of the Moon is Illuminated
Nov 12
Waning Crescent
Nov 13
New
Nov 20
First Quarter
Nov 28
Full
Dec 6
Last Quarter

Hourly Weather History & Observations

Time (MST) Temp. Windchill Dew Point Humidity Pressure Visibility Wind Dir Wind Speed Gust Speed Precip Events Conditions
12:15 AM 16.5 °F 11.0 °F 12.6 °F 84% 30.40 in 10.0 mi WNW 3.5 mph - N/A   Clear
12:35 AM 14.4 °F 8.6 °F 10.6 °F 85% 30.41 in 10.0 mi NNW 3.5 mph - N/A   Clear
12:55 AM 15.6 °F 10.0 °F 12.2 °F 86% 30.41 in 10.0 mi NW 3.5 mph - N/A   Clear
1:15 AM 14.5 °F 7.1 °F 11.1 °F 86% 30.42 in 10.0 mi WNW 4.6 mph - N/A   Clear
1:35 AM 14.7 °F 9.0 °F 11.5 °F 87% 30.42 in 10.0 mi WNW 3.5 mph - N/A   Clear
1:55 AM 13.5 °F 7.5 °F 9.7 °F 85% 30.42 in 10.0 mi North 3.5 mph - N/A   Clear
2:15 AM 12.9 °F 5.2 °F 9.9 °F 88% 30.42 in 10.0 mi WNW 4.6 mph - N/A   Clear
2:35 AM 14.2 °F 6.7 °F 10.9 °F 87% 30.43 in 10.0 mi West 4.6 mph - N/A   Clear
2:55 AM 11.7 °F 5.5 °F 8.8 °F 88% 30.43 in 10.0 mi WNW 3.5 mph - N/A   Clear
3:15 AM 13.8 °F 4.9 °F 10.2 °F 86% 30.43 in 10.0 mi West 5.8 mph - N/A   Clear
3:35 AM 13.1 °F 7.1 °F 9.5 °F 86% 30.44 in 10.0 mi North 3.5 mph - N/A   Clear
3:55 AM 10.6 °F 4.3 °F 7.7 °F 88% 30.44 in 10.0 mi NNW 3.5 mph - N/A   Clear
4:15 AM 11.1 °F 4.9 °F 7.7 °F 86% 30.43 in 10.0 mi NNW 3.5 mph - N/A   Clear
4:35 AM 10.0 °F 0.4 °F 6.6 °F 86% 30.43 in 10.0 mi NW 5.8 mph - N/A   Clear
5:15 AM 10.9 °F 1.4 °F 7.2 °F 85% 30.44 in 10.0 mi WNW 5.8 mph - N/A   Clear
5:35 AM 10.4 °F -0.4 °F 6.8 °F 85% 30.44 in 10.0 mi NW 6.9 mph - N/A   Clear
5:55 AM 10.4 °F 2.2 °F 7.2 °F 87% 30.44 in 10.0 mi WNW 4.6 mph - N/A   Clear
6:15 AM 10.4 °F -0.4 °F 7.2 °F 87% 30.44 in 10.0 mi WNW 6.9 mph - N/A   Clear
6:35 AM 10.8 °F 1.2 °F 7.0 °F 85% 30.45 in 10.0 mi NW 5.8 mph - N/A   Clear
6:55 AM 9.1 °F -0.7 °F 5.7 °F 86% 30.46 in 10.0 mi NNW 5.8 mph - N/A   Clear
7:15 AM 10.6 °F -0.2 °F 7.5 °F 87% 30.46 in 10.0 mi NW 6.9 mph - N/A   Clear
7:35 AM 12.9 °F 3.8 °F 8.4 °F 82% 30.46 in 10.0 mi NW 5.8 mph - N/A   Clear
7:55 AM 15.4 °F 6.8 °F 10.2 °F 80% 30.46 in 10.0 mi NNW 5.8 mph - N/A   Clear
8:15 AM 17.2 °F 8.9 °F 10.8 °F 76% 30.47 in 10.0 mi NW 5.8 mph - N/A   Clear
8:35 AM 18.5 °F 11.7 °F 12.0 °F 76% 30.47 in 10.0 mi NNW 4.6 mph - N/A   Clear
8:55 AM 21.0 °F 13.4 °F 13.8 °F 74% 30.47 in 10.0 mi NW 5.8 mph - N/A   Clear
9:15 AM 23.9 °F 19.5 °F 15.3 °F 70% 30.47 in 10.0 mi North 3.5 mph - N/A   Clear
9:35 AM 27.7 °F - 16.3 °F 62% 30.46 in 10.0 mi Calm Calm - N/A   Clear
9:55 AM 31.8 °F 27.3 °F 13.8 °F 47% 30.46 in 10.0 mi NW 4.6 mph - N/A   Clear
10:15 AM 34.3 °F 27.7 °F 9.0 °F 35% 30.46 in 10.0 mi NW 8.1 mph - N/A   Clear
10:35 AM 35.1 °F 27.9 °F 9.9 °F 35% 30.46 in 10.0 mi NW 9.2 mph - N/A   Clear
10:55 AM 35.6 °F 28.6 °F 9.0 °F 33% 30.46 in 10.0 mi NW 9.2 mph - N/A   Clear
11:15 AM 37.0 °F 32.4 °F 12.4 °F 36% 30.44 in 10.0 mi NW 5.8 mph - N/A   Clear
11:35 AM 37.8 °F 33.3 °F 10.6 °F 33% 30.44 in 10.0 mi NW 5.8 mph - N/A   Clear
11:55 AM 39.0 °F 35.7 °F 10.9 °F 32% 30.43 in 10.0 mi NW 4.6 mph - N/A   Clear
12:15 PM 40.6 °F 36.7 °F 13.1 °F 33% 30.41 in 10.0 mi NW 5.8 mph - N/A   Clear
12:35 PM 41.5 °F 39.6 °F 11.1 °F 29% 30.40 in 10.0 mi WNW 3.5 mph - N/A   Clear
12:55 PM 42.6 °F 39.9 °F 12.4 °F 29% 30.39 in 10.0 mi West 4.6 mph - N/A   Clear
1:15 PM 43.0 °F 39.5 °F 11.5 °F 28% 30.38 in 10.0 mi NW 5.8 mph - N/A   Clear
1:35 PM 44.6 °F 43.1 °F 12.6 °F 27% 30.38 in 10.0 mi NW 3.5 mph - N/A   Clear
1:55 PM 44.8 °F 43.3 °F 12.0 °F 27% 30.37 in 10.0 mi WNW 3.5 mph - N/A   Clear
2:15 PM 45.7 °F - 11.5 °F 25% 30.36 in 10.0 mi Calm Calm - N/A   Clear
2:35 PM 46.6 °F - 12.6 °F 25% 30.35 in 10.0 mi Calm Calm - N/A   Clear
2:55 PM 46.8 °F - 12.9 °F 26% 30.35 in 10.0 mi WNW 5.8 mph - N/A   Clear
3:15 PM 47.1 °F - 11.8 °F 24% 30.34 in 10.0 mi Calm Calm - N/A   Clear
3:35 PM 47.5 °F - 12.9 °F 25% 30.34 in 10.0 mi Calm Calm - N/A   Clear
3:55 PM 47.5 °F - 10.9 °F 23% 30.33 in 10.0 mi Calm Calm - N/A   Clear
4:15 PM 47.3 °F - 12.9 °F 25% 30.33 in 10.0 mi Calm Calm - N/A   Clear
4:35 PM 46.6 °F - 12.9 °F 26% 30.33 in 10.0 mi Calm Calm - N/A   Clear
4:55 PM 41.7 °F - 16.0 °F 35% 30.33 in 10.0 mi Calm Calm - N/A   Clear
5:15 PM 34.7 °F 31.8 °F 21.0 °F 57% 30.32 in 10.0 mi West 3.5 mph - N/A   Clear
5:35 PM 35.6 °F - 20.5 °F 54% 30.32 in 10.0 mi Calm Calm - N/A   Clear
5:55 PM 34.3 °F - 19.6 °F 55% 30.33 in 10.0 mi Calm Calm - N/A   Clear
6:15 PM 32.7 °F 29.6 °F 20.5 °F 61% 30.34 in 10.0 mi WSW 3.5 mph - N/A   Clear
6:35 PM 32.0 °F - 19.8 °F 61% 30.35 in 10.0 mi Calm Calm - N/A   Clear
6:55 PM 31.8 °F - 21.4 °F 65% 30.35 in 10.0 mi Calm Calm - N/A   Clear
7:15 PM 30.2 °F - 20.5 °F 67% 30.35 in 10.0 mi Calm Calm - N/A   Clear
7:35 PM 30.6 °F - 20.3 °F 66% 30.36 in 10.0 mi Calm Calm - N/A   Clear
7:55 PM 28.6 °F - 20.7 °F 72% 30.37 in 10.0 mi Calm Calm - N/A   Clear
8:15 PM 26.1 °F - 19.9 °F 78% 30.37 in 10.0 mi Calm Calm - N/A   Clear
8:35 PM 26.1 °F 21.9 °F 21.2 °F 82% 30.37 in 10.0 mi West 3.5 mph - N/A   Clear
8:55 PM 24.1 °F 19.7 °F 20.3 °F 85% 30.37 in 10.0 mi NW 3.5 mph - N/A   Clear
9:15 PM 25.0 °F 19.3 °F 21.0 °F 85% 30.37 in 10.0 mi NW 4.6 mph - N/A   Clear
9:35 PM 24.8 °F 19.1 °F 19.9 °F 82% 30.37 in 10.0 mi NW 4.6 mph - N/A   Clear
9:55 PM 25.5 °F - 19.4 °F 78% 30.37 in 10.0 mi Calm Calm - N/A   Clear
10:15 PM 24.1 °F - 19.4 °F 82% 30.37 in 10.0 mi Calm Calm - N/A   Clear
10:35 PM 22.8 °F 16.7 °F 19.4 °F 87% 30.37 in 10.0 mi NNW 4.6 mph - N/A   Clear
10:55 PM 21.7 °F 15.5 °F 18.7 °F 88% 30.37 in 10.0 mi NW 4.6 mph - N/A   Clear
11:15 PM 20.5 °F 12.8 °F 18.0 °F 90% 30.36 in 10.0 mi NNW 5.8 mph - N/A   Clear
11:35 PM 20.3 °F 12.5 °F 17.8 °F 90% 30.36 in 10.0 mi NW 5.8 mph - N/A   Clear
11:55 PM 20.7 °F 13.0 °F 18.1 °F 90% 30.35 in 10.0 mi NW 5.8 mph - N/A   Clear